Regional Weather Roundup
Issued by NWS

Home | Current Version | Previous Version | Graphics & Text | Print | Product List | Glossary Off
Versions: 1 2 3 4 5 6 7 8 9 10 11 12 13 14 15 16 17 18 19 20 21 22 23 24 25 26 27 28 29 30 31 32 33 34 35 36 37 38 39 40 41 42 43 44 45 46 47 48 49 50

524
ASUS43 KTOP 222208
RWRKS

WEATHER ROUNDUP FOR KANSAS
NATIONAL WEATHER SERVICE GOODLAND KS
500 PM CDT SUN APR 22 2018

NOTE:  "FAIR" INDICATES FEW OR NO CLOUDS BELOW 12,000 FEET WITH NO
SIGNIFICANT WEATHER AND/OR OBSTRUCTIONS TO VISIBILITY.

KSZ001>006-013>018-027>032-041>047-222300-
NORTHWEST KANSAS

CITY           SKY/WX    TMP DP  RH WIND       PRES   REMARKS
GOODLAND       SUNNY     53  35  50 NE6       30.16F
HAYS           SUNNY     64  36  35 NE14      30.13S
HILL CITY      MOSUNNY   62  40  44 VRB3      30.15F
RUSSELL        CLOUDY    61  39  44 E16       30.11F
$$

KSZ061>065-074>080-084>089-222300-
SOUTHWEST KANSAS

CITY           SKY/WX    TMP DP  RH WIND       PRES   REMARKS
DODGE CITY     PTSUNNY   61  39  44 VRB3      30.13F
ELKHART        SUNNY     58  40  50 E12       30.16F
GARDEN CITY    PTSUNNY   56  37  49 NW3       30.14F
GREAT BEND     CLOUDY    62  40  44 NE17      30.12S
LIBERAL        PTSUNNY   58  39  49 NE9G16    30.15F
PRATT          PTSUNNY   63  37  38 NE18      30.10R
$$

KSZ066>073-081>083-090>101-222300-
SOUTHEAST KANSAS

CITY           SKY/WX    TMP DP  RH WIND       PRES   REMARKS
CHANUTE        CLOUDY    54  50  86 NE13      30.02S
COFFEYVILLE    CLOUDY    55  52  89 N13       29.99F
HUTCHINSON     CLOUDY    57  41  55 N16       30.11S
MEDICINE LODGE   N/A     64  41  42 N17       30.07S
NEWTON         CLOUDY    54  45  71 N17       30.09R
PARSONS        CLOUDY    54  51  90 NE8       30.02R
WICHITA INTL   CLOUDY    56  46  69 N14       30.07S
WICHITA JABRA  CLOUDY    55  45  68 N20       30.06F
WICHITA MCCONL CLOUDY    56  44  65 N15G23    30.06F
WINFIELD       CLOUDY    55  48  77 N18       30.06S
$$

KSZ007>012-019>026-033>040-048>060-102>105-222300-
NORTHEAST KANSAS

CITY           SKY/WX    TMP DP  RH WIND       PRES   REMARKS
CONCORDIA      CLOUDY    58  37  45 NE13      30.13F
EMPORIA        CLOUDY    59  50  72 NE13      30.04F
LAWRENCE       PTSUNNY   66  46  48 NE13G24   30.06S
MANHATTAN      CLOUDY    64  43  46 N12       30.09S
MARYSVILLE     PTSUNNY   64  37  36 NE13G20   30.11F
OLATHE IND     CLOUDY    64  46  52 NE18G29   30.06F
OLATHE EXE     CLOUDY    61  45  55 NE15G21   30.05F
SALINA         CLOUDY    61  41  47 N15       30.12F
TOPEKA BILLARD SUNNY     69  45  41 E9        30.05F
TOPEKA FORBES  CLOUDY    65  47  52 NE12      30.06S
$$




USA.gov is the U.S. government's official web portal to all federal, state and local government web resources and services.